TimeCDT,TemperatureF,Dew PointF,Humidity,Sea Level PressureIn,VisibilityMPH,Wind Direction,Wind SpeedMPH,Gust SpeedMPH,PrecipitationIn,Events,Conditions,WindDirDegrees,DateUTC
12:58 AM,32.0,28.9,88,30.40,10.0,Calm,Calm,-,N/A,,Clear,0,2013-03-27 05:58:00
1:58 AM,30.0,28.9,96,30.39,10.0,Calm,Calm,-,N/A,,Clear,0,2013-03-27 06:58:00
2:58 AM,28.9,27.0,92,30.38,10.0,Calm,Calm,-,N/A,,Clear,0,2013-03-27 07:58:00
3:58 AM,28.0,27.0,96,30.38,10.0,Calm,Calm,-,N/A,,Clear,0,2013-03-27 08:58:00
4:58 AM,28.0,27.0,96,30.39,10.0,Calm,Calm,-,N/A,,Clear,0,2013-03-27 09:58:00
5:58 AM,27.0,26.1,96,30.40,10.0,Calm,Calm,-,N/A,,Clear,0,2013-03-27 10:58:00
6:58 AM,27.0,25.0,92,30.42,10.0,Calm,Calm,-,N/A,,Clear,0,2013-03-27 11:58:00
7:58 AM,30.9,28.9,92,30.44,10.0,Calm,Calm,-,N/A,,Clear,0,2013-03-27 12:58:00
8:58 AM,37.9,33.1,83,30.45,10.0,Calm,Calm,-,0.00,,Clear,0,2013-03-27 13:58:00
9:58 AM,45.0,26.1,48,30.45,10.0,NNE,8.1,-,N/A,,Clear,20,2013-03-27 14:58:00
10:58 AM,48.0,25.0,41,30.45,10.0,NW,4.6,-,N/A,,Clear,320,2013-03-27 15:58:00
11:58 AM,48.9,21.9,35,30.44,10.0,NW,5.8,-,N/A,,Clear,310,2013-03-27 16:58:00
12:58 PM,52.0,21.0,30,30.41,10.0,Calm,Calm,-,N/A,,Clear,0,2013-03-27 17:58:00
1:58 PM,54.0,23.0,30,30.38,10.0,ESE,5.8,-,N/A,,Clear,110,2013-03-27 18:58:00
2:58 PM,55.0,23.0,29,30.35,10.0,Variable,4.6,-,N/A,,Clear,0,2013-03-27 19:58:00
3:58 PM,59.0,24.1,26,30.32,10.0,North,6.9,-,N/A,,Clear,10,2013-03-27 20:58:00
4:58 PM,57.9,25.0,28,30.30,10.0,East,5.8,-,N/A,,Clear,80,2013-03-27 21:58:00
5:58 PM,59.0,26.1,28,30.30,10.0,NE,5.8,-,N/A,,Clear,40,2013-03-27 22:58:00
6:58 PM,55.9,26.1,32,30.30,10.0,North,3.5,-,N/A,,Clear,10,2013-03-27 23:58:00
7:58 PM,46.0,37.0,71,30.31,10.0,Calm,Calm,-,N/A,,Clear,0,2013-03-28 00:58:00
8:58 PM,43.0,36.0,76,30.32,10.0,Calm,Calm,-,N/A,,Clear,0,2013-03-28 01:58:00
9:58 PM,39.9,35.1,83,30.32,10.0,Calm,Calm,-,N/A,,Clear,0,2013-03-28 02:58:00
10:58 PM,37.9,34.0,86,30.32,10.0,Calm,Calm,-,N/A,,Clear,0,2013-03-28 03:58:00
11:58 PM,37.0,34.0,89,30.32,10.0,Calm,Calm,-,N/A,,Clear,0,2013-03-28 04:58:00